Location: Chervonnoye
(48.6000°N, 34.4000°E)
Time: 08:02:55
(UTC+00:00)

NOAA 15 - Pass Details

Date: 28 November 2021
Orbit: 797 x 812 km, 98.7° (Epoch: 26 January)

Event Time Altitude Azimuth Distance (km) Brightness Sun altitude
Rises 14:59:35 0° 121° (ESE) 3,324 7.4 -11.0°
Reaches altitude 10° 15:02:25 10° 106° (ESE) 2,395 6.6 -11.5°
Maximum altitude 15:06:19 22° 58° (ENE) 1,729 5.7 -12.1°
Drops below altitude 10° 15:10:14 10° 10° (N) 2,400 6.8 -12.7°
Sets 15:13:03 0° 356° (N) 3,332 7.7 -13.1°
